Flag for Azerbaijan Weather past 2 weeks in Ganja, Azerbaijan

Now
50 °F

Passing clouds.


Feels Like: 46 °F
Forecast: 46 / 60 °F
Wind: 12 mph from West

Location: Gyanca Airport

Current Time: Apr 22, 2015 at 4:37:52 AM

Latest Report: Apr 22, 2015 at 4:00 AM


Visibility: N/A

Pressure: 29.74 "Hg

Humidity: 71%

Dew point: 41 °F

Location of GanjaLocation

Historic Weather in Ganja — Graph

°F

Ganja temperature yesterday

Maximum temperature yesterday: 57 °F (at 2:00 PM)
Minimum temperature yesterday: 45 °F (at 8:00 AM)
Average temperature yesterday: 50 °F

Past Weeks' High & Low Weather Summary

 TemperatureHumidityPressure
High75 °F (Apr 18, 5:30 PM)100% (Apr 10, 5:30 AM)30.24 "Hg (Apr 10, 5:30 AM)
Low39 °F (Apr 7, 7:00 AM)24% (Apr 15, 4:30 PM)29.68 "Hg (Apr 10, 10:30 AM)
Average54 °F69%29.95 "Hg
* Reported Apr 7 3:00 AM — Apr 22 3:30 AM, Ganja, Weather by CustomWeather, © 2015

Note: Actual official high and low records may vary slightly from our data, if they occured in-between our weather recording intervals... More about our weather records

Advertising

Ganja weather history for previous 24 hours

 ConditionsComfort  
Time TempWeatherWind HumidityBarometerVisibility
3:30 AM
Wed, Apr 22
50 °FPassing clouds.12 mph71%29.74 "HgN/A
3:00 AM50 °FPassing clouds.13 mph71%29.77 "HgN/A
2:00 AM50 °FPassing clouds.17 mph71%29.77 "HgN/A
1:30 AM50 °FPassing clouds.15 mph82%29.77 "HgN/A
1:00 AM48 °FPassing clouds.9 mph87%29.77 "HgN/A
12:30 AM48 °FOvercast.9 mph87%29.77 "HgN/A
12:00 AM48 °FOvercast.5 mph87%29.74 "HgN/A
11:30 PM
Tue, Apr 21
50 °FOvercast.6 mph82%29.74 "HgN/A
11:00 PM50 °FOvercast.10 mph82%29.74 "HgN/A
10:30 PM50 °FPartly sunny.18 mph76%29.71 "HgN/A
10:00 PM50 °FPartly sunny.No wind71%29.77 "HgN/A
9:30 PM52 °FPartly sunny.7 mph67%29.74 "HgN/A
9:00 PM50 °FPartly sunny.13 mph71%29.74 "HgN/A
8:30 PM52 °FPartly sunny.16 mph62%29.74 "HgN/A
8:00 PM52 °FPartly sunny.26 mph67%29.74 "HgN/A
7:30 PM52 °FPartly sunny.24 mph67%29.74 "HgN/A
7:00 PM52 °FPartly sunny.23 mph72%29.71 "HgN/A
6:30 PM52 °FPartly sunny.22 mph72%29.71 "HgN/A
6:00 PM52 °FBroken clouds.24 mph72%29.71 "HgN/A
5:30 PM54 °FBroken clouds.21 mph67%29.71 "HgN/A
5:00 PM55 °FBroken clouds.21 mph67%29.71 "HgN/A
4:30 PM55 °FBroken clouds.21 mph67%29.71 "HgN/A
4:00 PM55 °FBroken clouds.18 mph67%29.71 "HgN/A
3:30 PM55 °FBroken clouds.15 mph67%29.71 "HgN/A
3:00 PM55 °FBroken clouds.14 mph72%29.71 "HgN/A
2:30 PM57 °FBroken clouds.12 mph63%29.71 "HgN/A
2:00 PM57 °FBroken clouds.10 mph63%29.71 "HgN/A
1:30 PM55 °FBroken clouds.7 mph72%29.71 "HgN/A
1:00 PM55 °FBroken clouds.7 mph67%29.71 "HgN/A
12:30 PM54 °FPartly sunny.7 mph77%29.74 "HgN/A
12:00 PM54 °FPartly sunny.5 mph77%29.74 "HgN/A
11:30 AM52 °FPartly sunny.3 mph77%29.77 "HgN/A
11:00 AM50 °FPartly sunny.5 mph82%29.77 "HgN/A
10:30 AM50 °FPartly sunny.8 mph88%29.77 "HgN/A
10:00 AM48 °FPartly sunny.7 mph87%29.80 "HgN/A
9:30 AM46 °FPartly sunny.7 mph93%29.80 "HgN/A
9:00 AM46 °FLight rain. Overcast.6 mph87%29.83 "HgN/A
8:30 AM46 °FOvercast.7 mph87%29.83 "HgN/A
8:00 AM45 °FLight rain. Fog.13 mph93%29.83 "Hg3 mi
7:30 AM46 °FLight rain. Fog.13 mph93%29.83 "Hg3 mi
7:00 AM46 °FLight rain. Fog.15 mph93%29.80 "Hg3 mi
6:30 AM46 °FLow clouds.13 mph93%29.83 "Hg1 mi
6:00 AM46 °FLow clouds.12 mph93%29.83 "Hg1 mi
5:30 AM46 °FOvercast.6 mph87%29.83 "Hg5 mi
5:00 AM46 °FOvercast.8 mph93%29.80 "Hg5 mi
4:30 AM46 °FOvercast.3 mph87%29.83 "Hg5 mi
4:00 AM46 °FOvercast.6 mph93%29.83 "Hg5 mi
Weather by CustomWeather, © 2015

See weather overviewHow to use our weather pages